Baraboo, WI

6:54 AM CST on January 16, 2017 (GMT -0600)
Baraboo Wisconsin Dells

Weather History for KDLL - November, 2013

Change the Weather History Date:

Friday, November 15, 2013

  Actual Average Record
Temperature  
Mean Temperature 42 °F -  
Max Temperature 53 °F 44 °F 69 °F (1990)
Min Temperature 31 °F 25 °F 0 °F (1959)
Degree Days  
Heating Degree Days 23    
Moisture  
Dew Point 31 °F    
Average Humidity 66    
Maximum Humidity 83    
Minimum Humidity 49    
Precipitation  
Precipitation 0.00 in - - ()
Sea Level Pressure  
Sea Level Pressure 29.86 in    
Wind  
Wind Speed 6 mph (SW)    
Max Wind Speed 12 mph    
Max Gust Speed 16 mph    
Visibility 10 miles    
Events      
Averages and records for this station are not official NWS values.
T = Trace of Precipitation, MM = Missing Value Source: NWS Daily Summary

Daily Weather History Graph

Daily Weather History Graph

Search for Another Location

Airport or City:

Trip Planner

Search our weather history database for the weather conditions in past years. The results will help you decide how hot, cold, wet, or windy it might be!

Date:

Astronomy

Nov. 15, 2013 Rise Set
Actual Time 6:53 AM CST 4:33 PM CST
Civil Twilight 6:22 AM CST 5:04 PM CST
Nautical Twilight 5:47 AM CST 5:39 PM CST
Astronomical Twilight 5:13 AM CST 6:13 PM CST
Moon 3:33 PM CST (11/15) 4:46 AM CST (11/15)
Length of Visible Light 10h 42m
Length of Day
9h 40m
Waxing Gibbous, 96% of the Moon is Illuminated
Nov 15
Waxing Gibbous
Nov 17
Full
Nov 25
Last Quarter
Dec 2
New
Dec 9
First Quarter

Hourly Weather History & Observations

Time (CST) Temp. Windchill Dew Point Humidity Pressure Visibility Wind Dir Wind Speed Gust Speed Precip Events Conditions
12:15 AM 40.8 °F 35.6 °F 27.7 °F 60% 29.84 in 10.0 mi WSW 8.1 mph - N/A   Mostly Cloudy
12:55 AM 41.0 °F 35.8 °F 27.9 °F 60% 29.84 in 10.0 mi WSW 8.1 mph - N/A   Mostly Cloudy
1:15 AM 41.0 °F 36.4 °F 27.9 °F 60% 29.85 in 10.0 mi WSW 6.9 mph - N/A   Mostly Cloudy
1:35 AM 40.3 °F 34.9 °F 27.9 °F 61% 29.85 in 10.0 mi WSW 8.1 mph - N/A   Scattered Clouds
1:55 AM 39.7 °F 35.6 °F 27.9 °F 63% 29.85 in 10.0 mi WSW 5.8 mph - N/A   Clear
2:15 AM 39.2 °F 35.9 °F 27.5 °F 63% 29.85 in 10.0 mi WSW 4.6 mph - N/A   Clear
2:35 AM 38.8 °F 32.6 °F 27.9 °F 65% 29.84 in 10.0 mi SW 9.2 mph - N/A   Clear
2:55 AM 37.6 °F 33.1 °F 27.9 °F 68% 29.84 in 10.0 mi WSW 5.8 mph - N/A   Clear
3:15 AM 37.6 °F - 27.5 °F 67% 29.85 in 10.0 mi Calm Calm - N/A   Clear
3:35 AM 37.6 °F 35.1 °F 27.5 °F 67% 29.84 in 10.0 mi SW 3.5 mph - N/A   Clear
3:55 AM 36.0 °F 32.1 °F 27.0 °F 70% 29.84 in 10.0 mi SW 4.6 mph - N/A   Clear
4:15 AM 36.9 °F 33.1 °F 27.5 °F 69% 29.85 in 10.0 mi SW 4.6 mph - N/A   Clear
4:35 AM 35.6 °F 32.8 °F 27.5 °F 72% 29.86 in 10.0 mi SW 3.5 mph - N/A   Clear
4:55 AM 35.2 °F 31.2 °F 27.1 °F 72% 29.86 in 10.0 mi WSW 4.6 mph - N/A   Clear
5:15 AM 35.6 °F 29.9 °F 27.5 °F 72% 29.86 in 10.0 mi SW 6.9 mph - N/A   Clear
5:35 AM 34.0 °F - 27.1 °F 76% 29.86 in 10.0 mi Calm Calm - N/A   Clear
5:55 AM 33.4 °F 29.1 °F 26.6 °F 76% 29.86 in 10.0 mi SW 4.6 mph - N/A   Clear
6:15 AM 35.6 °F 31.7 °F 27.3 °F 72% 29.86 in 10.0 mi SW 4.6 mph - N/A   Clear
6:35 AM 34.7 °F 29.6 °F 27.5 °F 75% 29.87 in 10.0 mi WSW 5.8 mph - N/A   Clear
6:55 AM 31.6 °F 27.0 °F 26.6 °F 82% 29.87 in 10.0 mi SSW 4.6 mph - N/A   Clear
7:15 AM 32.0 °F 26.4 °F 27.3 °F 83% 29.87 in 10.0 mi SSW 5.8 mph - N/A   Clear
7:35 AM 33.3 °F 28.9 °F 27.7 °F 80% 29.88 in 10.0 mi SW 4.6 mph - N/A   Clear
7:55 AM 36.0 °F 33.3 °F 28.4 °F 74% 29.88 in 10.0 mi South 3.5 mph - N/A   Clear
8:15 AM 37.4 °F 32.8 °F 29.3 °F 73% 29.89 in 10.0 mi SW 5.8 mph - N/A   Clear
8:35 AM 38.5 °F 35.0 °F 29.3 °F 70% 29.89 in 10.0 mi WSW 4.6 mph - N/A   Clear
8:55 AM 39.7 °F 37.6 °F 29.8 °F 68% 29.89 in 10.0 mi SW 3.5 mph - N/A   Clear
9:15 AM 40.8 °F 38.8 °F 30.2 °F 66% 29.89 in 10.0 mi WSW 3.5 mph - N/A   Clear
9:35 AM 42.4 °F 38.8 °F 31.3 °F 65% 29.90 in 10.0 mi WSW 5.8 mph - N/A   Clear
9:55 AM 43.5 °F 40.1 °F 31.6 °F 63% 29.90 in 10.0 mi SW 5.8 mph - N/A   Clear
10:15 AM 44.1 °F 41.5 °F 31.8 °F 62% 29.90 in 10.0 mi WSW 4.6 mph - N/A   Clear
10:35 AM 46.0 °F 43.1 °F 32.4 °F 59% 29.90 in 10.0 mi WSW 5.8 mph - N/A   Clear
10:55 AM 47.5 °F - 32.9 °F 57% 29.90 in 10.0 mi SW 6.9 mph - N/A   Clear
11:15 AM 48.0 °F - 33.4 °F 57% 29.90 in 10.0 mi SW 10.4 mph - N/A   Clear
11:35 AM 49.1 °F - 33.6 °F 55% 29.89 in 10.0 mi SW 9.2 mph - N/A   Clear
11:55 AM 50.7 °F - 35.1 °F 55% 29.88 in 10.0 mi SW 9.2 mph - N/A   Clear
12:15 PM 50.9 °F - 34.0 °F 52% 29.87 in 10.0 mi SW 5.8 mph - N/A   Clear
12:35 PM 51.4 °F - 34.2 °F 52% 29.86 in 10.0 mi SSW 5.8 mph - N/A   Clear
12:55 PM 52.0 °F - 35.1 °F 53% 29.86 in 10.0 mi WSW 6.9 mph - N/A   Clear
1:15 PM 52.3 °F - 34.7 °F 51% 29.86 in 10.0 mi SW 8.1 mph - N/A   Clear
1:35 PM 52.7 °F - 34.5 °F 50% 29.86 in 10.0 mi WSW 6.9 mph - N/A   Clear
1:55 PM 53.1 °F - 34.7 °F 50% 29.85 in 10.0 mi SW 6.9 mph - N/A   Clear
2:15 PM 53.6 °F - 34.7 °F 49% 29.85 in 10.0 mi SW 9.2 mph - N/A   Clear
2:35 PM 53.1 °F - 34.5 °F 49% 29.84 in 10.0 mi WSW 8.1 mph - N/A   Clear
2:55 PM 53.1 °F - 34.2 °F 49% 29.84 in 10.0 mi SW 6.9 mph - N/A   Clear
3:15 PM 51.1 °F - 34.3 °F 53% 29.84 in 10.0 mi WSW 4.6 mph - N/A   Clear
3:35 PM 51.3 °F - 34.9 °F 54% 29.84 in 10.0 mi SSW 3.5 mph - N/A   Clear
3:55 PM 50.5 °F - 34.7 °F 55% 29.84 in 10.0 mi SSW 3.5 mph - N/A   Clear
4:15 PM 49.1 °F - 34.3 °F 57% 29.85 in 10.0 mi SSW 4.6 mph - N/A   Clear
4:35 PM 46.9 °F - 33.6 °F 60% 29.85 in 10.0 mi SSW 3.5 mph - N/A   Clear
4:55 PM 45.9 °F 42.9 °F 33.6 °F 62% 29.85 in 10.0 mi SSW 5.8 mph - N/A   Clear
5:15 PM 43.9 °F 41.3 °F 33.3 °F 66% 29.85 in 10.0 mi SSW 4.6 mph - N/A   Clear
5:35 PM 41.7 °F 38.0 °F 32.2 °F 69% 29.86 in 10.0 mi South 5.8 mph - N/A   Clear
5:55 PM 42.8 °F 38.6 °F 33.3 °F 69% 29.86 in 10.0 mi South 6.9 mph - N/A   Clear
6:15 PM 42.1 °F 36.6 °F 33.3 °F 71% 29.85 in 10.0 mi South 9.2 mph - N/A   Clear
6:35 PM 43.2 °F 38.4 °F 34.0 °F 70% 29.85 in 10.0 mi South 8.1 mph - N/A   Clear
6:55 PM 43.2 °F 39.0 °F 33.6 °F 69% 29.85 in 10.0 mi South 6.9 mph - N/A   Clear
7:15 PM 43.2 °F 39.0 °F 33.3 °F 68% 29.85 in 10.0 mi South 6.9 mph - N/A   Clear
7:35 PM 41.5 °F 36.4 °F 32.9 °F 71% 29.84 in 10.0 mi South 8.1 mph - N/A   Clear
7:55 PM 41.9 °F 36.9 °F 32.4 °F 69% 29.84 in 10.0 mi South 8.1 mph - N/A   Clear
8:15 PM 42.6 °F 37.2 °F 32.0 °F 66% 29.85 in 10.0 mi South 9.2 mph - N/A   Clear
8:35 PM 40.6 °F 33.8 °F 32.0 °F 71% 29.85 in 10.0 mi South 11.5 mph - N/A   Clear
8:55 PM 41.9 °F 35.4 °F 31.8 °F 67% 29.85 in 10.0 mi South 11.5 mph - N/A   Clear
9:15 PM 41.7 °F 36.1 °F 31.6 °F 67% 29.85 in 10.0 mi South 9.2 mph 16.1 mph N/A   Clear
9:35 PM 41.0 °F 34.7 °F 31.8 °F 70% 29.85 in 10.0 mi South 10.4 mph - N/A   Clear
9:55 PM 39.6 °F 33.5 °F 32.0 °F 74% 29.85 in 10.0 mi South 9.2 mph - N/A   Clear
10:15 PM 39.7 °F 34.9 °F 32.0 °F 74% 29.84 in 10.0 mi South 6.9 mph - N/A   Clear
10:35 PM 39.6 °F 34.7 °F 32.0 °F 74% 29.84 in 10.0 mi South 6.9 mph - N/A   Clear
10:55 PM 38.7 °F 34.3 °F 32.0 °F 77% 29.84 in 10.0 mi South 5.8 mph - N/A   Clear
11:15 PM 37.0 °F 32.4 °F 31.5 °F 80% 29.84 in 10.0 mi South 5.8 mph - N/A   Clear
11:35 PM 37.6 °F 32.3 °F 32.0 °F 80% 29.84 in 10.0 mi South 6.9 mph - N/A   Clear
11:55 PM 36.3 °F 30.8 °F 31.5 °F 83% 29.83 in 10.0 mi South 6.9 mph - N/A   Clear